CAPE
0 0 0 0 0 0 0 0 0 0 0 0 0 0 0 0 0 35 154 148 593 307 37 41 28 73 24 151 245 7 0 47 281 0 1 1 1 0 0 0 0 0 1 2 2 6 1 0 1 0 17 14 0 0
0 0 0 0 0 0 0 0 0 0 0 0 0 0 0 0 0 0 183 101 331 341 123 89 20 8 1 16 50 52 3 0 25 0 3 8 1 0 0 0 0 0 0 12 0 0 20 17 40 7 5 0 0 0
0 0 0 0 0 0 0 0 0 0 0 0 0 0 0 0 0 0 291 246 421 784 107 71 27 0 0 16 66 138 384 0 29 82 3 0 0 1 1 0 0 0 0 64 29 0 12 17 0 0 0 0 0 0
0 0 0 0 0 0 0 0 0 0 0 0 0 0 0 0 0 0 252 228 177 110 14 117 0 0 0 9 40 71 53 134 155 0 0 0 0 0 12 0 39 0 0 0 4 7 44 1 0 0 0 0 0 1
0 0 0 0 0 0 0 0 0 0 1 0 0 0 0 0 0 113 276 166 167 311 0 136 0 0 0 0 23 12 72 72 50 0 0 0 30 121 18 0 1 0 0 0 11 31 13 6 0 0 0 2 1 0
0 0 0 0 0 0 0 0 0 1 0 0 0 0 0 0 0 294 145 153 94 229 14 4 1 0 0 0 21 25 37 74 130 26 0 5 11 98 0 0 0 0 0 2 5 1 0 0 0 0 0 0 0 0
0 0 0 0 0 0 0 0 0 0 0 0 0 0 0 0 32 51 17 0 0 92 9 1 3 0 0 0 4 15 1 3 26 107 29 5 67 28 1 1 0 0 0 8 0 0 0 0 2 2 0 0 0 0
0 0 0 0 0 0 0 0 0 0 0 0 1 0 0 0 0 65 0 0 0 67 17 1 2 3 0 5 4 0 3 0 14 20 0 3 21 3 4 0 0 0 4 0 0 0 5 0 0 0 0 0 0 0
0 0 0 0 0 0 0 0 0 0 0 0 0 0 0 18 53 72 0 0 61 96 49 0 1 0 4 2 0 4 9 0 0 0 0 5 0 0 0 0 0 2 0 0 0 0 0 0 0 0 0 0 0 0
0 0 0 0 0 0 0 0 0 0 0 0 0 0 1 0 0 0 53 25 32 8 2 0 4 10 0 5 2 0 2 6 2 2 0 0 0 0 0 0 0 0 0 0 0 0 0 0 0 0 0 0 0 0
0 0 0 0 0 0 0 0 0 0 0 0 0 0 0 0 0 0 0 0 1 0 0 4 4 1 1 0 0 4 0 0 11 3 8 7 6 0 0 0 0 0 0 0 0 0 0 0 0 0 0 0 0 0
0 0 0 0 0 0 0 0 0 1 3 0 0 0 0 0 0 17 0 0 0 0 1 0 0 2 1 3 0 1 0 1 4 5 7 7 0 1 0 0 0 0 0 0 0 0 0 0 0 0 0 0 0 0
0 0 0 0 0 0 0 0 0 0 0 0 0 0 0 0 1 2 2 3 1 0 0 0 0 0 0 0 0 0 3 7 5 9 4 11 0 0 2 2 1 0 0 0 0 0 0 0 0 0 0 0 0 0
0 0 0 0 0 0 0 0 0 0 0 0 1 3 5 7 9 7 7 3 2 0 0 0 0 0 0 0 0 5 4 11 11 13 5 21 0 0 3 4 2 0 0 0 0 0 0 0 0 0 0 0 0 0
0 0 0 0 0 0 0 0 0 2 8 3 3 10 6 7 4 2 1 2 0 0 2 0 1 1 1 3 1 7 5 10 13 24 3 21 14 1 0 0 0 0 0 0 0 0 0 0 0 0 0 0 0 0
0 0 2 0 0 0 0 0 0 0 0 1 2 12 10 12 4 1 1 1 3 3 5 7 2 8 10 13 8 13 14 15 29 32 68 0 0 0 0 0 0 0 0 0 0 0 0 0 0 0 0 0 0 0
0 20 0 0 0 0 0 0 0 0 0 0 1 14 5 2 3 7 12 5 2 1 3 5 21 3 3 14 9 12 32 30 84 54 0 0 0 0 0 0 0 0 0 0 0 0 0 0 0 0 0 0 0 0
5 22 0 0 0 0 0 0 3 1 0 2 5 3 3 9 4 2 9 8 4 2 7 5 0 2 23 19 34 54 55 12 5 4 0 0 0 0 0 0 0 0 0 0 0 0 0 0 0 0 0 2 10 10
0 23 0 0 0 0 0 0 2 7 1 3 3 2 1 1 5 3 3 1 0 0 0 0 4 0 18 4 66 77 71 54 18 0 0 0 0 0 0 0 0 0 0 0 0 0 0 0 0 0 2 13 18 25
0 0 0 0 0 3 2 4 0 2 6 4 4 2 2 3 2 8 2 5 4 18 4 0 1 68 77 44 5 23 13 0 0 0 0 0 0 0 0 0 0 0 0 0 0 0 6 16 24 29 24 17 22 5
0 1 0 0 0 2 3 2 3 3 0 7 3 7 1 3 3 6 7 4 16 11 1 2 135 40 6 0 0 0 0 0 0 0 0 0 0 0 0 0 0 0 4 21 30 24 27 51 47 43 6 0 1 0
4 0 0 0 4 6 8 0 9 0 5 9 10 13 2 1 1 1 0 7 4 0 0 9 15 19 15 4 0 0 0 0 0 0 0 0 1 2 11 34 43 41 34 41 45 31 34 39 22 21 13 1 0 2
0 1 2 0 6 16 4 1 8 5 4 6 11 4 4 1 2 0 2 2 1 0 1 3 0 0 0 0 0 0 0 0 0 3 10 19 33 41 41 39 39 28 29 36 63 50 30 0 0 1 0 1 7 11
1 3 3 5 15 2 5 3 1 1 6 7 4 6 4 3 1 4 3 2 2 1 0 0 0 0 1 0 0 14 13 7 9 16 29 32 37 28 37 34 23 24 27 32 37 20 1 0 2 6 7 10 14 21
5 2 5 3 7 2 4 2 1 7 4 4 2 5 3 3 4 2 0 19 2 0 1 3 5 6 7 29 14 3 0 3 6 6 3 12 18 11 10 12 7 20 20 17 19 0 2 2 5 13 8 11 13 20
4 3 6 11 6 5 8 4 3 4 4 3 5 3 5 7 1 0 6 7 3 2 8 6 2 4 1 0 0 2 4 8 7 6 8 9 8 12 14 14 24 16 3 5 9 8 12 17 25 12 13 19 21 16
5 5 3 0 2 0 2 3 0 1 0 1 6 3 2 0 0 3 1 1 3 2 0 3 1 3 2 2 2 3 12 7 7 10 5 13 5 8 10 10 7 10 14 11 9 10 10 12 17 20 23 13 16 27
4 7 0 3 1 0 0 0 1 1 1 2 3 1 0 1 1 2 2 1 1 0 1 4 2 2 4 3 7 11 3 8 6 3 0 5 13 7 4 11 9 7 8 7 8 8 8 15 9 11 12 8 11 9
1 5 0 0 1 2 0 0 1 1 0 5 8 7 2 1 3 2 2 3 4 5 4 4 6 9 6 8 19 10 6 7 3 1 0 4 4 6 8 15 11 10 10 7 3 8 10 14 14 11 7 13 6 10
1 1 3 0 0 5 3 8 3 2 0 2 0 0 1 3 6 5 7 6 5 6 9 9 11 8 7 6 6 8 15 4 7 4 3 4 9 12 14 9 6 8 10 10 8 5 6 8 4 18 4 3 1 3
2 0 0 2 5 7 6 2 1 1 3 1 3 3 2 3 7 6 4 9 10 7 4 4 4 6 4 3 6 4 3 4 8 7 3 14 14 14 11 9 8 11 9 6 6 5 12 7 10 8 3 1 1 0
0 0 0 5 13 2 0 0 0 2 8 7 12 2 4 5 2 4 4 6 7 4 2 4 3 4 3 5 6 11 2 11 15 13 8 14 9 10 9 10 8 9 4 3 3 7 9 3 6 0 1 0 0 0
3 3 2 3 3 5 3 0 0 0 5 4 4 1 2 3 1 4 5 6 4 4 3 3 4 4 7 0 0 8 0 5 1 11 10 5 0 1 5 10 10 5 0 2 2 8 1 1 0 0 0 0 0 0
CIN
-0 -0 -0 -0 -0 -0 -0 -0 -0 -0 -0 -0 -0 -0 -0 -0 -0 -237 -148 -188 -57 -66 -85 -58 -41 -6 -8 -19 -15 -12 -0 -2 -1 -0 -0 -0 -0 -0 -0 -0 -0 -0 -0 -0 -0 -1 -0 -0 -2 -3 -13 -22 -5 -0
-0 -0 -0 -0 -0 -0 -0 -0 -0 -0 -0 -0 -0 -0 -0 -0 -0 -0 -58 -164 -115 -33 -72 -104 -172 -181 -12 -75 -3 -30 -0 -0 -14 -0 -1 -0 -0 -0 -0 -0 -0 -0 -0 -3 -0 -0 -17 -16 -0 -15 -34 -1 -0 -0
-0 -0 -0 -0 -0 -0 -0 -0 -0 -0 -0 -0 -0 -0 -0 -0 -0 -0 -58 -92 -33 -15 -66 -59 -78 -0 -0 -131 -82 -29 -4 -0 -3 -49 -0 -0 -0 -0 -0 -0 -0 -0 -0 -17 -11 -0 -2 -32 -0 -0 -0 -0 -0 -0
-0 -0 -0 -0 -0 -0 -0 -0 -0 -0 -0 -0 -0 -0 -0 -0 -0 -0 -41 -75 -67 -34 -72 -30 -0 -0 -0 -62 -69 -44 -35 -46 -51 -0 -0 -0 -0 -0 -1 -0 -3 -0 -0 -0 -3 -0 -5 -4 -0 -0 -0 -0 -0 -0
-0 -0 -0 -0 -0 -0 -0 -0 -0 -0 -0 -0 -0 -0 -0 -0 -0 -72 -27 -65 -75 -15 -0 -13 -0 -0 -0 -0 -59 -59 -21 -15 -15 -0 -0 -0 -10 -20 -5 -0 -0 -0 -0 -0 -4 -20 -9 -27 -0 -0 -0 -0 -0 -0
-0 -0 -0 -0 -0 -0 -0 -0 -0 -0 -0 -0 -0 -0 -0 -0 -0 -3 -0 -20 -76 -20 -118 -0 -1 -0 -0 -0 -29 -23 -1 -0 -1 -2 -0 -8 -0 -4 -0 -0 -0 -0 -0 -1 -9 -14 -0 -0 -0 -0 -0 -0 -0 -0
-0 -0 -0 -0 -0 -0 -0 -0 -0 -0 -0 -0 -0 -0 -0 -0 -9 -3 -8 -0 -0 -55 -13 -0 -1 -0 -0 -0 -2 -2 -6 -0 -5 -1 -6 -1 -1 -2 -2 -4 -0 -0 -0 -3 -0 -0 -0 -0 -0 -0 -0 -0 -0 -0
-0 -0 -0 -0 -0 -0 -0 -0 -0 -0 -0 -0 -0 -0 -0 -0 -0 -0 -0 -0 -0 -12 -21 -0 -0 -0 -0 -1 -0 -0 -1 -3 -4 -13 -0 -1 -5 -16 -9 -0 -0 -0 -5 -0 -0 -0 -0 -2 -0 -0 -0 -0 -0 -0
-0 -0 -0 -0 -0 -0 -0 -0 -0 -0 -0 -0 -0 -0 -24 -8 -1 -0 -0 -0 -15 -2 -0 -0 -0 -0 -0 -0 -0 -0 -1 -0 -0 -0 -0 -0 -0 -0 -0 -0 -0 -1 -0 -0 -0 -0 -0 -0 -0 -0 -0 -0 -0 -0
-0 -0 -0 -0 -0 -0 -0 -0 -0 -0 -0 -0 -0 -0 -0 -0 -0 -0 -17 -6 -0 -5 -0 -1 -0 -0 -0 -0 -0 -0 -0 -0 -0 -0 -0 -0 -0 -0 -0 -0 -0 -0 -0 -0 -0 -0 -0 -0 -0 -0 -0 -0 -0 -0
-0 -0 -0 -0 -0 -0 -0 -0 -0 -0 -0 -0 -0 -0 -0 -0 -0 -0 -0 -0 -0 -0 -0 -0 -0 -0 -0 -0 -0 -0 -0 -0 -0 -0 -0 -0 -0 -0 -0 -0 -0 -0 -0 -0 -0 -0 -0 -0 -0 -0 -0 -0 -0 -0
-0 -0 -0 -0 -0 -0 -0 -0 -0 -0 -0 -0 -0 -0 -0 -0 -0 -0 -0 -0 -0 -0 -0 -0 -0 -0 -0 -0 -0 -0 -0 -0 -0 -0 -0 -0 -0 -5 -0 -0 -0 -0 -0 -0 -0 -0 -0 -0 -0 -0 -0 -0 -0 -0
-0 -0 -0 -0 -0 -0 -0 -0 -0 -0 -0 -0 -0 -0 -0 -0 -0 -0 -0 -0 -0 -0 -0 -0 -0 -0 -0 -0 -0 -0 -0 -0 -0 -0 -0 -0 -1 -0 -0 -0 -0 -0 -0 -0 -0 -0 -0 -0 -0 -0 -0 -0 -0 -0
-0 -0 -0 -0 -0 -0 -0 -0 -0 -0 -0 -0 -0 -0 -0 -0 -0 -0 -0 -0 -0 -0 -0 -0 -0 -0 -0 -0 -0 -0 -0 -0 -0 -0 -0 -0 -0 -0 -0 -0 -1 -0 -0 -0 -0 -0 -0 -0 -0 -0 -0 -0 -0 -0
-0 -0 -0 -0 -0 -0 -0 -0 -0 -0 -0 -0 -0 -0 -0 -0 -0 -0 -0 -0 -0 -0 -0 -0 -0 -0 -0 -0 -0 -0 -0 -0 -0 -0 -0 -6 -21 -5 -0 -0 -0 -0 -0 -0 -0 -0 -0 -0 -0 -0 -0 -0 -0 -0
-0 -0 -1 -0 -0 -0 -0 -0 -0 -0 -0 -0 -0 -0 -0 -0 -0 -0 -0 -0 -0 -0 -0 -0 -0 -0 -0 -0 -0 -0 -0 -0 -0 -0 -1 -0 -0 -0 -0 -0 -0 -0 -0 -0 -0 -0 -0 -0 -0 -0 -0 -0 -0 -0
-0 -0 -1 -0 -0 -0 -0 -0 -0 -0 -0 -0 -0 -0 -0 -0 -0 -0 -0 -0 -0 -0 -0 -0 -0 -0 -0 -0 -0 -0 -0 -0 -0 -2 -0 -0 -0 -0 -0 -0 -0 -0 -0 -0 -0 -0 -0 -0 -0 -0 -0 -0 -0 -0
-0 -4 -0 -0 -0 -0 -0 -0 -0 -0 -0 -0 -0 -0 -0 -0 -0 -0 -0 -0 -0 -0 -0 -0 -0 -3 -0 -0 -0 -0 -0 -13 -39 -27 -0 -0 -0 -0 -0 -0 -0 -0 -0 -0 -0 -0 -0 -0 -0 -0 -0 -1 -19 -9
-0 -6 -0 -0 -3 -0 -0 -0 -0 -0 -0 -0 -0 -0 -0 -0 -0 -0 -0 -0 -0 -0 -0 -0 -3 -0 -4 -6 -0 -0 -0 -2 -1 -0 -0 -0 -0 -0 -0 -0 -0 -0 -0 -0 -0 -0 -0 -0 -0 -0 -16 -10 -3 -5
-3 -3 -0 -0 -0 -0 -0 -0 -0 -0 -0 -0 -0 -0 -0 -0 -0 -0 -0 -0 -1 -2 -9 -0 -0 -0 -0 -2 -3 -0 -6 -0 -0 -0 -0 -0 -0 -0 -0 -0 -0 -0 -0 -0 -0 -0 -9 -3 -6 -5 -6 -5 -13 -14
-0 -0 -0 -0 -0 -0 -0 -0 -0 -0 -0 -0 -3 -0 -0 -0 -0 -0 -0 -0 -0 -0 -0 -0 -0 -0 -1 -0 -0 -0 -0 -0 -0 -0 -0 -0 -0 -0 -0 -0 -0 -0 -5 -2 -7 -4 -4 -1 -2 -1 -18 -0 -0 -0
-0 -0 -0 -0 -0 -0 -0 -0 -0 -0 -1 -0 -0 -0 -0 -0 -0 -0 -0 -0 -0 -0 -0 -0 -0 -0 -1 -4 -0 -0 -0 -0 -0 -0 -0 -0 -0 -0 -2 -3 -5 -6 -8 -16 -8 -8 -4 -2 -1 -2 -7 -1 -0 -0
-0 -0 -0 -0 -0 -0 -0 -0 -0 -0 -0 -0 -0 -0 -0 -0 -0 -0 -0 -0 -0 -0 -0 -0 -0 -0 -0 -0 -0 -0 -0 -0 -0 -0 -5 -1 -1 -5 -6 -5 -9 -16 -8 -5 -3 -2 -4 -0 -0 -1 -0 -0 -0 -0
-0 -0 -0 -0 -0 -0 -0 -0 -0 -0 -0 -0 -0 -0 -0 -0 -0 -0 -0 -0 -0 -2 -0 -0 -0 -0 -1 -0 -0 -1 -8 -4 -0 -1 -4 -2 -1 -1 -3 -3 -5 -10 -8 -5 -7 -14 -0 -0 -12 -0 -0 -0 -0 -0
-0 -0 -0 -0 -0 -0 -0 -0 -0 -0 -0 -0 -0 -0 -0 -0 -0 -0 -0 -0 -0 -0 -0 -0 -2 -0 -0 -2 -8 -4 -0 -0 -0 -0 -0 -0 -0 -0 -0 -0 -0 -0 -5 -2 -1 -1 -0 -0 -1 -0 -0 -0 -0 -0
-0 -0 -0 -0 -0 -0 -0 -0 -0 -0 -0 -0 -0 -0 -0 -0 -0 -0 -1 -0 -0 -0 -0 -0 -0 -0 -0 -0 -0 -0 -0 -0 -0 -0 -0 -0 -0 -0 -0 -0 -0 -0 -0 -0 -0 -0 -3 -0 -0 -0 -0 -0 -0 -0
-0 -0 -0 -0 -0 -0 -0 -0 -0 -0 -0 -0 -0 -0 -0 -0 -0 -0 -0 -0 -0 -0 -0 -0 -0 -0 -0 -0 -0 -0 -0 -0 -0 -0 -0 -0 -0 -0 -0 -0 -0 -0 -0 -0 -0 -0 -0 -0 -0 -0 -0 -0 -0 -0
-0 -0 -0 -0 -0 -0 -0 -0 -0 -0 -0 -0 -0 -0 -0 -0 -0 -0 -0 -0 -0 -0 -0 -0 -0 -0 -0 -0 -0 -0 -0 -0 -0 -0 -0 -0 -0 -0 -0 -0 -0 -0 -0 -0 -0 -0 -0 -0 -0 -0 -0 -0 -0 -0
-0 -0 -0 -0 -0 -0 -0 -0 -0 -0 -0 -0 -0 -0 -0 -0 -0 -0 -0 -0 -0 -0 -0 -0 -0 -0 -0 -0 -0 -0 -0 -0 -0 -0 -0 -0 -0 -0 -0 -0 -0 -0 -0 -0 -0 -0 -0 -0 -0 -0 -0 -0 -0 -0
-0 -0 -0 -0 -0 -0 -0 -0 -0 -0 -0 -1 -0 -0 -0 -0 -0 -0 -0 -0 -0 -0 -0 -0 -0 -0 -0 -0 -0 -0 -0 -0 -0 -0 -0 -0 -0 -0 -0 -0 -0 -0 -0 -0 -0 -0 -0 -0 -0 -0 -0 -0 -0 -0
-0 -0 -0 -0 -0 -0 -0 -0 -0 -0 -0 -0 -0 -0 -0 -0 -0 -0 -0 -0 -0 -0 -0 -0 -0 -0 -0 -0 -0 -0 -0 -0 -0 -0 -0 -0 -0 -0 -0 -0 -0 -0 -0 -0 -0 -0 -0 -0 -0 -0 -0 -0 -0 -0
-0 -0 -0 -0 -0 -0 -0 -0 -0 -0 -0 -0 -0 -0 -0 -0 -0 -0 -0 -0 -0 -0 -0 -0 -0 -0 -0 -0 -0 -0 -4 -0 -0 -0 -0 -0 -0 -0 -0 -0 -0 -0 -0 -0 -0 -0 -0 -0 -0 -0 -0 -0 -0 -0
-0 -0 -0 -0 -0 -0 -0 -0 -0 -0 -0 -0 -0 -1 -0 -0 -0 -0 -0 -0 -0 -0 -0 -0 -0 -0 -0 -0 -0 -0 -0 -0 -0 -0 -0 -0 -0 -0 -0 -0 -0 -0 -0 -0 -0 -0 -0 -0 -0 -0 -0 -0 -0 -0
Wind_Speed
17 15 14 13 13 12 10 8 6 5 4 5 7 9 11 12 11 5 3 4 4 3 4 5 2 3 1 5 5 8 4 1 2 3 3 3 1 4 1 3 7 7 6 4 4 4 7 2 4 2 5 7 7 7
16 15 13 12 12 11 10 8 7 6 5 5 7 9 10 11 12 7 2 1 3 3 5 6 7 7 6 9 2 7 1 6 5 4 2 1 2 2 4 2 6 4 7 4 9 6 8 7 5 6 8 7 5 5
14 14 13 12 10 10 9 8 7 6 5 5 7 8 9 11 12 7 4 3 1 3 4 4 3 6 9 8 5 3 1 2 5 4 5 3 3 5 4 5 2 4 7 3 3 8 9 6 10 11 6 4 3 4
15 14 12 11 10 8 8 7 6 5 4 5 5 7 9 10 12 10 3 3 1 4 5 3 2 3 4 4 5 5 5 6 5 5 3 4 3 8 5 6 4 4 6 6 9 11 4 10 7 4 3 1 3 2
17 18 15 11 9 8 7 6 6 5 5 4 3 4 8 11 12 5 4 4 4 3 4 2 1 3 2 1 3 4 5 5 3 3 3 4 3 1 3 0 4 5 7 5 7 1 3 5 6 3 2 4 2 3
16 18 19 15 11 7 6 6 6 6 6 4 2 3 7 10 10 4 2 4 6 5 4 2 3 1 1 2 4 4 4 2 3 4 3 4 3 3 3 4 6 8 6 4 3 8 9 8 4 4 2 2 1 5
16 15 14 14 13 12 6 4 6 7 6 6 4 3 6 8 4 3 2 3 7 4 3 2 2 2 5 3 2 3 5 3 0 1 3 2 2 2 3 6 6 7 9 1 7 9 4 5 3 6 3 1 3 7
14 13 13 13 12 11 10 6 4 6 7 6 6 6 5 5 7 2 2 4 6 2 2 3 2 1 2 2 2 3 2 2 0 1 1 2 1 2 5 8 11 14 3 6 4 3 6 8 5 6 2 4 6 8
13 12 12 12 11 9 8 6 3 6 8 9 8 5 3 2 1 2 4 8 2 2 2 2 5 4 4 3 2 1 0 1 1 1 2 2 3 7 7 7 9 5 7 7 7 8 8 4 2 2 3 6 7 8
12 11 12 12 10 9 11 8 2 8 11 14 2 2 1 2 7 4 0 1 2 1 1 3 3 3 4 2 1 2 2 2 3 3 3 3 4 8 10 4 1 7 7 8 7 6 5 2 2 3 6 7 7 8
11 11 12 13 13 11 10 6 9 15 7 3 2 2 1 4 1 2 2 2 2 2 3 1 4 6 3 4 3 1 3 3 3 3 3 3 4 7 10 5 3 8 8 6 5 7 4 3 3 5 5 5 4 5
9 10 11 12 12 13 11 8 6 4 3 4 5 3 2 3 2 3 3 1 3 4 2 2 1 3 2 1 3 2 3 3 5 6 2 3 4 9 10 10 10 9 9 8 5 3 3 4 5 5 4 4 4 4
9 10 10 11 11 11 13 15 15 13 3 3 5 5 2 2 2 3 4 2 1 2 1 1 2 2 2 2 3 2 5 5 1 3 3 2 6 7 8 9 8 10 11 9 5 5 6 6 5 2 4 5 4 6
7 7 8 8 8 7 9 10 10 3 4 4 2 4 2 3 1 2 2 2 1 2 3 2 2 2 1 2 2 3 1 2 3 3 4 2 6 8 8 7 7 10 7 3 3 4 4 2 3 3 5 5 4 7
4 4 4 7 9 8 9 10 10 2 2 3 0 3 2 1 2 1 2 1 3 1 2 2 2 1 1 2 1 2 3 3 2 1 3 4 7 9 8 7 7 5 3 2 3 3 3 3 4 6 5 6 7 5
5 3 4 6 8 9 6 5 4 5 3 3 2 3 1 2 1 1 1 2 1 1 1 2 2 0 2 2 2 1 1 1 3 3 2 6 7 6 5 6 4 3 3 4 4 5 5 4 5 8 6 5 6 7
4 3 9 8 7 8 10 4 3 3 2 1 2 2 2 3 3 1 0 2 1 1 2 1 2 4 1 1 2 2 3 2 2 2 4 6 5 4 3 2 1 3 4 5 6 6 6 5 4 5 9 10 8 8
1 6 11 10 3 3 3 3 2 1 1 1 2 3 2 3 3 2 2 2 1 2 1 2 2 1 0 1 1 2 2 3 2 2 3 3 3 4 4 5 6 5 5 5 4 5 6 6 8 8 10 11 7 5
7 4 11 8 3 4 2 3 3 1 1 2 2 3 2 2 3 3 2 2 2 1 2 1 1 2 1 2 1 1 2 2 0 2 1 4 5 5 3 4 5 6 6 6 6 5 6 7 8 8 8 7 6 4
14 11 12 11 3 2 2 1 2 0 2 3 3 3 3 3 2 1 1 2 0 1 1 2 2 2 1 2 2 2 2 1 1 2 3 3 3 2 4 4 4 5 5 6 6 6 6 7 7 8 8 6 3 3
6 2 7 5 2 4 1 2 1 1 2 1 4 4 2 2 2 1 2 1 2 2 2 2 1 1 1 3 2 2 2 1 3 2 3 4 3 3 4 5 5 4 5 5 6 8 7 8 8 8 5 3 2 5
3 7 3 4 1 1 1 1 1 3 2 2 3 3 3 3 3 3 2 3 3 3 3 2 2 1 2 4 2 3 1 2 3 4 5 4 5 5 5 4 4 5 5 6 7 8 7 7 7 6 1 1 2 4
7 3 1 2 3 3 3 2 2 3 3 4 3 3 2 2 2 1 2 3 3 2 3 3 2 3 3 3 3 3 2 3 4 4 4 5 5 5 5 6 6 7 8 8 6 6 6 5 5 4 3 3 4 5
3 1 1 1 1 4 3 3 2 3 3 4 4 3 4 2 3 2 3 2 1 3 1 1 1 2 4 2 2 3 5 5 5 5 6 7 7 8 8 8 8 8 9 8 7 5 5 6 6 5 3 5 6 7
3 2 3 4 2 5 4 5 3 3 4 3 4 3 3 3 3 3 3 3 6 6 6 7 5 3 3 5 7 7 12 9 8 9 8 9 9 9 9 9 10 9 8 10 10 8 6 4 4 4 5 6 8 9
2 2 2 3 3 3 4 5 5 4 4 3 3 4 3 3 3 4 2 5 6 5 5 6 6 6 6 8 7 7 9 8 8 8 8 9 10 10 11 11 9 7 10 10 11 10 8 6 6 6 7 10 6 6
3 3 2 2 2 4 4 3 3 2 3 4 5 5 4 3 5 4 4 6 4 3 3 4 4 5 6 6 7 6 5 6 7 8 9 8 7 9 9 9 10 9 10 11 11 11 11 10 8 7 6 5 6 5
2 1 4 3 3 2 4 3 4 4 3 3 6 4 3 2 4 3 4 3 3 3 3 5 6 5 5 6 5 5 6 7 8 8 8 2 7 7 10 8 8 15 10 10 11 10 11 8 8 8 8 7 5 5
2 2 3 3 2 2 1 2 2 1 2 3 3 3 4 4 3 3 4 3 3 4 4 4 5 5 5 5 5 5 5 6 10 13 13 8 8 8 10 10 10 10 9 10 14 13 14 11 9 7 6 4 5 3
2 3 1 2 1 2 3 5 3 2 3 3 3 4 5 4 4 4 3 4 4 4 4 4 4 5 5 6 6 7 5 6 6 7 8 9 9 10 10 10 11 11 10 11 11 12 13 9 11 4 5 5 5 5
1 0 2 2 3 3 3 2 1 1 1 2 4 4 4 5 3 3 4 3 3 4 4 5 5 6 6 6 6 7 6 5 7 7 7 7 7 9 10 10 10 10 10 11 11 11 10 8 8 6 5 7 8 7
2 3 1 1 3 2 0 1 1 1 3 3 3 4 5 5 4 3 3 4 3 4 4 5 5 6 6 6 5 6 4 6 7 7 10 7 8 10 10 10 10 9 10 12 12 10 9 9 6 6 7 9 9 8
2 2 2 1 1 2 2 2 1 1 2 2 3 3 4 5 4 3 3 3 3 3 4 5 6 6 7 5 7 7 7 7 11 10 10 9 9 10 9 9 9 8 10 11 12 9 7 8 7 9 8 8 8 8
Wind_Direction
148 148 150 149 147 147 152 152 146 133 91 51 37 28 16 0 4 346 79 13 337 56 73 4 7 149 50 185 135 132 122 135 80 99 150 205 167 228 175 197 162 169 159 192 202 238 260 307 344 129 347 353 33 15
143 143 144 146 148 146 149 146 141 129 100 55 38 25 11 358 352 353 104 31 339 52 75 40 48 35 34 7 165 173 214 141 161 125 167 137 189 350 23 223 210 199 182 190 184 214 209 110 128 85 63 71 40 344
124 128 139 143 143 145 147 145 142 132 110 59 37 24 11 357 346 354 63 355 62 77 122 177 124 37 32 17 8 139 1 225 150 41 131 168 182 172 175 227 284 279 283 232 205 250 277 56 82 94 64 19 347 234
65 95 124 127 127 134 144 146 147 141 123 77 42 17 359 352 349 334 56 0 14 67 111 125 173 123 354 1 50 26 98 65 78 98 116 150 173 205 189 258 276 248 297 277 268 269 287 112 120 117 34 130 228 249
55 69 73 98 125 127 132 139 146 140 136 122 73 21 358 351 348 343 63 44 22 328 159 139 47 80 13 354 164 131 137 140 117 98 125 205 225 332 85 12 240 245 252 248 261 62 213 107 136 120 169 199 86 341
61 59 60 60 72 119 147 141 139 151 155 152 124 28 3 345 347 265 161 74 12 342 97 109 79 90 156 221 189 185 204 218 212 123 197 256 213 168 154 227 253 260 290 336 26 83 72 109 153 191 213 111 7 330
61 55 58 55 50 57 82 147 144 161 167 167 135 66 17 343 337 353 25 10 323 309 84 68 193 50 312 194 65 74 51 29 348 215 163 219 242 219 175 223 236 270 259 288 98 113 103 162 169 175 163 230 340 337
61 56 58 57 44 41 44 65 160 170 173 143 114 90 64 64 114 175 60 306 318 83 51 142 165 247 242 65 128 341 72 5 207 8 56 211 48 40 248 240 253 249 208 113 125 165 162 195 163 180 81 4 340 335
55 53 46 43 51 51 33 27 100 176 156 131 107 100 45 16 193 52 266 294 339 336 197 128 167 193 128 66 47 49 99 141 28 220 217 214 174 221 231 242 242 182 157 168 160 156 140 152 102 51 354 340 341 337
51 50 47 35 44 39 16 4 131 149 143 127 88 114 335 323 312 316 281 36 349 244 112 172 184 167 155 149 156 107 351 230 215 219 140 218 252 269 282 272 256 160 160 143 158 167 115 83 332 350 337 340 350 337
55 46 46 39 39 24 10 55 115 117 104 69 87 83 255 336 40 31 155 187 178 246 187 213 186 147 188 143 154 192 173 176 239 168 222 232 250 223 215 166 133 102 124 154 99 83 80 53 346 326 341 15 336 303
56 49 50 44 35 39 56 64 81 56 45 81 95 91 65 46 41 194 183 118 203 219 104 128 62 64 59 311 125 184 175 159 243 143 208 257 252 99 128 136 135 140 136 116 102 83 35 346 354 27 352 308 314 323
40 46 51 59 47 54 50 61 79 116 113 59 47 54 44 71 170 205 193 226 222 102 163 176 92 111 99 55 84 158 188 208 123 164 232 239 105 128 136 137 139 95 65 50 33 13 5 344 359 325 296 290 283 287
28 34 47 67 77 79 46 38 27 51 68 59 81 95 333 148 68 40 339 22 36 73 99 92 82 107 137 109 130 198 96 208 203 215 211 109 123 135 138 129 159 98 88 59 333 305 301 246 247 259 262 269 270 276
21 25 64 68 92 96 49 31 4 316 88 84 213 88 85 89 35 357 293 63 346 45 65 67 57 74 91 123 96 122 177 216 236 207 56 56 60 90 90 94 97 111 152 241 302 318 294 269 266 280 267 258 255 265
352 315 72 97 107 92 43 18 19 358 15 95 83 138 117 168 126 72 31 79 26 359 41 27 78 163 80 52 192 204 253 215 77 46 57 70 67 78 86 85 71 16 349 318 307 298 286 260 249 263 275 281 271 263
319 76 128 122 111 81 42 66 5 25 77 32 107 41 93 79 95 88 186 85 46 49 66 3 35 44 236 33 36 340 12 64 54 80 53 105 125 146 119 93 231 258 264 267 273 272 274 279 284 285 281 281 261 237
15 126 144 144 125 56 44 28 80 345 56 96 139 122 54 4 102 82 56 63 31 61 341 69 183 137 228 265 161 82 104 96 46 85 131 121 84 41 358 330 308 316 305 297 279 276 272 264 268 267 263 263 248 251
35 28 170 184 47 86 52 15 292 151 73 92 74 90 70 91 63 50 55 25 43 359 76 16 213 221 199 90 92 81 46 9 75 168 172 180 211 230 236 287 289 280 273 270 276 281 283 278 274 276 274 276 275 290
62 59 80 40 340 98 111 153 238 276 151 114 112 130 59 57 63 32 20 8 79 148 155 218 253 22 50 82 49 63 79 104 31 322 298 303 302 259 221 242 260 276 288 283 278 269 277 282 278 281 276 277 281 281
68 84 47 38 31 36 305 184 111 61 123 114 104 145 93 145 109 101 72 354 354 250 239 224 230 243 112 67 15 0 336 329 287 292 293 293 301 331 312 293 278 271 271 282 290 291 282 277 287 295 295 254 284 298
85 74 72 354 101 120 152 317 132 143 101 112 174 132 130 144 136 148 103 206 234 235 238 261 284 323 189 188 212 205 260 320 294 286 276 264 272 272 265 268 296 291 290 282 283 285 291 297 302 290 265 236 260 268
98 83 113 165 164 159 112 254 156 172 133 141 181 117 144 140 87 197 217 236 247 287 319 311 21 39 304 344 23 320 282 284 302 310 324 305 291 278 281 278 274 275 277 278 277 281 288 317 317 293 281 279 287 283
102 54 142 142 252 112 155 162 171 108 115 178 162 149 129 134 170 218 241 220 33 79 22 328 252 257 177 182 263 47 32 4 337 335 352 335 309 294 289 293 297 292 291 296 292 287 287 287 286 275 285 297 296 290
194 144 224 149 216 151 135 136 153 166 146 177 153 149 138 174 194 206 235 133 60 42 19 1 337 24 10 34 33 27 43 18 357 335 333 334 335 331 325 320 316 316 316 308 291 264 264 270 271 269 284 290 285 287
160 139 272 142 150 166 140 142 169 157 132 146 138 92 177 195 214 229 112 69 67 46 20 20 3 3 21 25 2 5 352 357 339 320 329 342 317 304 304 308 319 352 5 350 342 335 324 306 284 284 294 289 296 308
161 154 148 309 75 104 106 68 63 117 180 161 152 160 159 208 219 90 109 29 60 29 9 37 17 10 357 355 2 352 348 1 345 317 305 317 49 32 16 0 355 350 338 346 345 341 332 328 323 316 313 324 302 309
59 201 156 156 100 37 111 131 168 176 167 146 140 173 200 230 60 58 60 49 24 347 26 41 42 9 12 5 352 356 17 357 334 340 327 149 39 38 12 355 350 345 342 340 333 330 326 331 332 326 335 347 2 24
67 56 78 74 101 106 123 130 148 103 63 153 180 170 101 66 31 57 58 19 8 9 40 25 32 8 30 5 19 52 38 19 2 3 358 345 346 351 351 343 345 338 337 331 326 328 325 325 317 307 304 343 13 39
79 314 91 88 109 105 60 5 56 24 353 27 73 118 112 102 64 31 41 44 37 38 29 36 34 27 18 10 2 3 39 56 33 3 343 336 332 329 331 339 336 328 329 326 324 322 321 337 316 336 34 44 29 12
57 8 76 51 76 60 44 11 219 171 33 50 38 42 92 118 120 60 31 15 57 55 30 29 20 29 12 353 354 343 336 11 355 349 352 324 328 328 332 330 325 320 326 324 322 315 323 333 329 356 52 54 44 34
50 41 57 115 108 96 279 4 44 248 153 201 148 115 149 177 121 101 33 341 58 56 44 17 9 0 354 332 351 326 338 328 333 345 338 333 339 330 330 325 319 327 330 321 314 314 337 348 357 30 23 48 45 38
61 39 35 4 239 166 76 303 233 236 192 202 88 48 50 8 78 94 113 56 46 43 12 359 342 328 324 22 333 327 360 345 329 322 338 341 343 343 329 320 317 327 327 319 308 325 3 9 24 29 39 39 45 38